User: anonymous   Login
Location: Unspecified
(0.0000°N, 0.0000°E)
Time: 09:30:56
(UTC+00:00)
Language:

DICE 2 - Orbit

View from above orbital plane
View from above orbital plane
View from above satellite
View from above satellite

Ground track
Ground track

The orbit data is extracted from the following two-line orbital elements,

1 37852U 11061C   17327.49110712 +.00004608 +00000-0 +24523-3 0  9996
2 37852 101.7180 282.3793 0169785 326.9227 032.1455 15.04691891330332
Epoch (UTC): 23 November 2017 11:47:11
Eccentricity: 0.0169785
inclination: 101.7180°
perigee height: 435 km
apogee height: 670 km
right ascension of ascending node: 282.3793°
argument of perigee: 326.9227°
revolutions per day: 15.04691891
mean anomaly at epoch: 32.1455°
orbit number at epoch: 33033

The dashed part of the orbit path shows where the satellite is in the earth's shadow,  

DLR